Location: Asheville, NC
(35.6000°N, 82.5500°W)
Time: 01:39:01
(UTC-05:00)

Tiangong 1 - Pass Details

Date: 09 February 2018
Orbit: 247 x 269 km, 42.8° (Epoch: 21 February)

Event Time Altitude Azimuth Distance (km) Brightness Sun altitude
Exits shadow 06:18:54 32° 324° (NW) 470 1.1 -13.5°
Maximum altitude 06:19:08 33° 340° (NNW) 458 1.2 -13.5°
Drops below altitude 10° 06:21:20 10° 49° (NE) 1,054 3.9 -13.1°
Sets 06:23:20 0° 59° (ENE) 1,871 5.4 -12.7°
